Torna al catalogo

STARLINK-11185

AttivoComunicazioniVLEO
NORAD 62588·PAYLOAD·🇺🇸 United States

Lanciato Jan 13, 2025 da Cape Canaveral Space Force Station

Loading…

Prossimi Passaggi (prossime 24 ore)

TLE

AggiornatoSource: CelesTrak SupGP

Epoca: Sep 14, 2026, 20:53 UTC

1 62588C 25008B   26257.87062500  .00067641  00000+0  52554-3 0  2578
2 62588  43.0010  65.6039 0001706 282.6386 314.0276 15.70796652    19

Traccia STARLINK-11185 in tempo reale con AllMySat

Download on the App Store